Regional Weather Roundup
Issued by NWS Cleveland, OH

Home | Current Version | Previous Version | Graphics & Text | Print | Product List | Glossary On
Versions: 1 2 3 4 5 6 7 8 9 10 11 12 13 14 15 16 17 18 19 20 21 22 23 24 25 26 27 28 29 30 31 32 33 34 35 36 37 38 39 40 41 42 43 44 45 46 47 48 49 50
000
ASUS41 KCLE 281100
RWRCLE
OHIO REGIONAL WEATHER ROUNDUP
NATIONAL WEATHER SERVICE WILMINGTON, OH
700 AM EDT THU AUG 28 2014

NOTE: "FAIR" INDICATES FEW OR NO CLOUDS BELOW 12,000 FEET WITH NO
SIGNIFICANT WEATHER AND/OR OBSTRUCTIONS TO VISIBILITY.

OHZ001>008-015>018-024>027-034-035-043-044-281200-
   NORTHWEST OHIO

CITY           SKY/WX    TMP DP  RH WIND       PRES   REMARKS
DEFIANCE       PTCLDY    61  57  87 NE5       30.14R
FINDLAY        PTCLDY    62  59  90 CALM      30.12R
TOLEDO EXPRESS MOCLDY    61  56  83 CALM      30.14R
TOLEDO METCALF CLOUDY    65  56  72 NE6       30.14S
LIMA           FOG       61  59  93 NE3       30.13R VSB 1/4
$$

OHZ009>014-019>023-028>033-038-089-281200-
   NORTHEAST OHIO

CITY           SKY/WX    TMP DP  RH WIND       PRES   REMARKS
CLE-HOPKINS    MOCLDY    63  54  72 NE6       30.15R
CLE-LAKEFRONT  MOCLDY    64  53  67 N9        30.13R
CUY CO. ARPT   MOCLDY    57  55  94 E5        30.13
LORAIN-ELYRIA  CLOUDY    63  58  83 NE3       30.14R
ASHTABULA      CLEAR     51  49  92 CALM      30.13R
AKRON-CANTON   PTCLDY    58  53  84 N6        30.13R
WOOSTER        NOT AVBL
MANSFIELD      MOCLDY    57  57 100 CALM      30.14R FOG
YOUNGSTOWN     CLEAR     53  52  96 CALM      30.12R
$$

OHZ042-051>053-060>062-070>072-077>081-281200-
  SOUTHWEST OHIO

CITY           SKY/WX    TMP DP  RH WIND       PRES   REMARKS
CINC-COVINGTON PTCLDY    71  66  84 NE6       30.08R
CINC-LUNKEN    CLEAR     67  65  93 NE5       30.09R
HAMILTON       PTCLDY    67  64  90 E5        30.10R
DAYTON         NOT AVBL
WRIGHT-PAT AFB PTCLDY    64  62  94 NE5       30.12R
DAYTON GENERAL CLEAR     65  62  90 E7        30.10R
WILMINGTON     CLEAR     63  60  90 NE7       30.11R
$$

OHZ036-037-039>041-045>050-054>059-063>069-073>076-082>088-281200-
  CENTRAL AND SOUTHEAST OHIO

CITY           SKY/WX    TMP DP  RH WIND       PRES   REMARKS
COLUMBUS       PTCLDY    64  60  87 N6        30.11R
OSU AIRPORT    CLEAR     62  60  93 N3        30.12R
BOLTON FIELD   NOT AVBL
RICKENBACK AFB NOT AVBL
NEWARK         CLEAR     62  59  90 CALM      30.12R
MARION         FOG       59  57  93 N3        30.13R VSB 1/4
LANCASTER      CLEAR     61  58  90 CALM      30.11R FOG
ZANESVILLE     CLEAR     60  57  89 N3        30.11R
NEW PHILLY     PTCLDY    58  57  97 CALM      30.12R
$$



USA.gov is the U.S. government's official web portal to all federal, state and local government web resources and services.